Time,TemperatureF,DewpointF,PressureIn,WindDirection,WindDirectionDegrees,WindSpeedMPH,WindSpeedGustMPH,Humidity,HourlyPrecipIn,Conditions,Clouds,dailyrainin,SoftwareType,DateUTC
2013-05-03 00:00:00,57.0,41.0,30.02,SW,222,0.0,0.0,55,0.00,,,0.00,meteohub,2013-05-03 07:00:00,
2013-05-03 00:05:00,56.7,41.2,30.02,SW,222,0.0,0.0,56,0.00,,,0.00,meteohub,2013-05-03 07:05:00,
2013-05-03 00:10:00,56.7,41.5,30.02,SW,223,0.0,0.0,57,0.00,,,0.00,meteohub,2013-05-03 07:10:00,
2013-05-03 00:15:00,56.7,41.2,30.02,SW,223,0.0,0.0,56,0.00,,,0.00,meteohub,2013-05-03 07:15:00,
2013-05-03 00:20:00,56.7,41.5,30.01,SW,223,0.0,0.0,57,0.00,,,0.00,meteohub,2013-05-03 07:20:00,
2013-05-03 00:25:00,56.5,41.4,30.01,SW,223,0.0,0.0,57,0.00,,,0.00,meteohub,2013-05-03 07:25:00,
2013-05-03 00:30:00,56.3,41.7,30.01,SW,222,0.0,0.0,58,0.00,,,0.00,meteohub,2013-05-03 07:30:00,
2013-05-03 00:35:00,56.1,41.5,30.01,SW,223,0.0,0.0,58,0.00,,,0.00,meteohub,2013-05-03 07:35:00,
2013-05-03 00:40:00,55.9,41.4,30.01,SW,223,0.0,0.0,58,0.00,,,0.00,meteohub,2013-05-03 07:40:00,
2013-05-03 00:45:00,55.9,41.0,30.01,SW,222,0.0,0.0,57,0.00,,,0.00,meteohub,2013-05-03 07:45:00,
2013-05-03 00:50:00,55.9,40.5,30.01,SW,223,0.0,0.0,56,0.00,,,0.00,meteohub,2013-05-03 07:50:00,
2013-05-03 00:56:00,55.6,41.0,30.01,SW,223,0.0,0.0,58,0.00,,,0.00,meteohub,2013-05-03 07:56:00,
2013-05-03 01:01:00,55.0,41.4,30.01,SW,223,0.0,0.0,60,0.00,,,0.00,meteohub,2013-05-03 08:01:00,
2013-05-03 01:06:00,55.0,41.4,30.01,SW,223,0.0,0.0,60,0.00,,,0.00,meteohub,2013-05-03 08:06:00,
2013-05-03 01:11:00,54.5,40.8,30.01,SW,222,0.0,0.0,60,0.00,,,0.00,meteohub,2013-05-03 08:11:00,
2013-05-03 01:16:00,54.3,40.8,30.01,SW,222,0.0,0.0,60,0.00,,,0.00,meteohub,2013-05-03 08:16:00,
2013-05-03 01:21:00,54.0,40.5,30.01,SW,223,0.0,0.0,60,0.00,,,0.00,meteohub,2013-05-03 08:21:00,
2013-05-03 01:26:00,53.2,40.6,30.01,SW,223,0.0,0.0,62,0.00,,,0.00,meteohub,2013-05-03 08:26:00,
2013-05-03 01:31:00,52.9,41.0,30.01,SW,223,0.0,0.0,64,0.00,,,0.00,meteohub,2013-05-03 08:31:00,
2013-05-03 01:36:00,53.2,41.4,30.01,SW,223,0.0,0.0,64,0.00,,,0.00,meteohub,2013-05-03 08:36:00,
2013-05-03 01:41:00,53.2,41.4,30.01,SW,223,0.0,0.0,64,0.00,,,0.00,meteohub,2013-05-03 08:41:00,
2013-05-03 01:46:00,53.4,41.2,30.01,SW,223,0.0,0.0,63,0.00,,,0.00,meteohub,2013-05-03 08:46:00,
2013-05-03 01:51:00,53.4,41.5,30.00,SW,223,0.0,0.0,64,0.00,,,0.00,meteohub,2013-05-03 08:51:00,
2013-05-03 01:56:00,53.2,41.4,30.00,SW,222,0.0,0.0,64,0.00,,,0.00,meteohub,2013-05-03 08:56:00,
2013-05-03 02:02:00,53.2,41.4,30.00,SW,223,0.0,0.0,64,0.00,,,0.00,meteohub,2013-05-03 09:02:00,
2013-05-03 02:07:00,53.4,41.2,29.99,SW,223,0.0,1.0,63,0.00,,,0.00,meteohub,2013-05-03 09:07:00,
2013-05-03 02:12:00,53.4,40.6,29.99,SW,223,0.0,1.0,62,0.00,,,0.00,meteohub,2013-05-03 09:12:00,
2013-05-03 02:17:00,53.2,41.0,29.99,SW,223,0.0,1.0,63,0.00,,,0.00,meteohub,2013-05-03 09:17:00,
2013-05-03 02:22:00,53.2,41.4,29.99,SW,223,0.0,0.0,64,0.00,,,0.00,meteohub,2013-05-03 09:22:00,
2013-05-03 02:28:00,52.9,41.0,29.99,SW,223,0.0,0.0,64,0.00,,,0.00,meteohub,2013-05-03 09:28:00,
2013-05-03 02:33:00,52.5,41.5,29.99,SW,223,0.0,0.0,66,0.00,,,0.00,meteohub,2013-05-03 09:33:00,
2013-05-03 02:38:00,52.3,41.4,29.99,SW,223,0.0,0.0,66,0.00,,,0.00,meteohub,2013-05-03 09:38:00,
2013-05-03 02:43:00,52.0,41.4,29.99,SW,223,0.0,0.0,67,0.00,,,0.00,meteohub,2013-05-03 09:43:00,
2013-05-03 02:48:00,51.4,40.8,29.99,SW,223,0.0,0.0,67,0.00,,,0.00,meteohub,2013-05-03 09:48:00,
2013-05-03 02:53:00,51.3,41.4,29.98,SW,223,0.0,0.0,69,0.00,,,0.00,meteohub,2013-05-03 09:53:00,
2013-05-03 02:58:00,51.3,41.4,29.98,SW,224,0.0,0.0,69,0.00,,,0.00,meteohub,2013-05-03 09:58:00,
2013-05-03 03:03:00,51.3,41.4,29.98,SW,223,0.0,0.0,69,0.00,,,0.00,meteohub,2013-05-03 10:03:00,
2013-05-03 03:08:00,51.3,41.0,29.98,SW,222,0.0,0.0,68,0.00,,,0.00,meteohub,2013-05-03 10:08:00,
2013-05-03 03:13:00,51.4,41.5,29.98,SW,223,0.0,0.0,69,0.00,,,0.00,meteohub,2013-05-03 10:13:00,
2013-05-03 03:18:00,51.6,41.7,29.98,SW,223,0.0,0.0,69,0.00,,,0.00,meteohub,2013-05-03 10:18:00,
2013-05-03 03:23:00,51.4,41.5,29.98,SW,223,0.0,0.0,69,0.00,,,0.00,meteohub,2013-05-03 10:23:00,
2013-05-03 03:28:00,51.4,41.2,29.98,SW,223,1.0,0.0,68,0.00,,,0.00,meteohub,2013-05-03 10:28:00,
2013-05-03 03:33:00,51.4,41.2,29.98,SW,223,0.0,0.0,68,0.00,,,0.00,meteohub,2013-05-03 10:33:00,
2013-05-03 03:38:00,51.3,40.6,29.97,SW,223,0.0,0.0,67,0.00,,,0.00,meteohub,2013-05-03 10:38:00,
2013-05-03 03:43:00,50.7,41.0,29.97,SW,223,0.0,0.0,69,0.00,,,0.00,meteohub,2013-05-03 10:43:00,
2013-05-03 03:48:00,50.5,41.5,29.97,SW,223,0.0,0.0,71,0.00,,,0.00,meteohub,2013-05-03 10:48:00,
2013-05-03 03:53:00,50.7,41.4,29.96,SW,223,0.0,0.0,70,0.00,,,0.00,meteohub,2013-05-03 10:53:00,
2013-05-03 03:58:00,50.4,40.6,29.96,SW,223,0.0,0.0,69,0.00,,,0.00,meteohub,2013-05-03 10:58:00,
2013-05-03 04:03:00,50.4,41.0,29.96,SW,223,0.0,0.0,70,0.00,,,0.00,meteohub,2013-05-03 11:03:00,
2013-05-03 04:08:00,50.5,41.2,29.96,SW,223,0.0,0.0,70,0.00,,,0.00,meteohub,2013-05-03 11:08:00,
2013-05-03 04:13:00,50.5,40.8,29.96,SW,223,0.0,0.0,69,0.00,,,0.00,meteohub,2013-05-03 11:13:00,
2013-05-03 04:18:00,50.4,41.0,29.96,SW,223,0.0,0.0,70,0.00,,,0.00,meteohub,2013-05-03 11:18:00,
2013-05-03 04:23:00,50.2,40.8,29.97,SW,223,0.0,0.0,70,0.00,,,0.00,meteohub,2013-05-03 11:23:00,
2013-05-03 04:28:00,50.4,40.6,29.97,SW,223,0.0,0.0,69,0.00,,,0.00,meteohub,2013-05-03 11:28:00,
2013-05-03 04:33:00,50.2,40.8,29.97,SW,223,0.0,0.0,70,0.00,,,0.00,meteohub,2013-05-03 11:33:00,
2013-05-03 04:38:00,49.8,40.8,29.96,SW,223,0.0,0.0,71,0.00,,,0.00,meteohub,2013-05-03 11:38:00,
2013-05-03 04:43:00,49.5,40.5,29.96,SW,223,0.0,0.0,71,0.00,,,0.00,meteohub,2013-05-03 11:43:00,
2013-05-03 04:48:00,49.1,40.5,29.96,SW,223,0.0,0.0,72,0.00,,,0.00,meteohub,2013-05-03 11:48:00,
2013-05-03 04:53:00,48.7,40.1,29.96,SW,223,0.0,0.0,72,0.00,,,0.00,meteohub,2013-05-03 11:53:00,
2013-05-03 04:59:00,48.6,40.3,29.96,SW,223,0.0,0.0,73,0.00,,,0.00,meteohub,2013-05-03 11:59:00,
2013-05-03 05:04:00,48.6,40.3,29.96,SW,223,0.0,0.0,73,0.00,,,0.00,meteohub,2013-05-03 12:04:00,
2013-05-03 05:09:00,48.7,40.5,29.96,SW,223,0.0,0.0,73,0.00,,,0.00,meteohub,2013-05-03 12:09:00,
2013-05-03 05:14:00,48.7,40.1,29.96,SW,223,0.0,0.0,72,0.00,,,0.00,meteohub,2013-05-03 12:14:00,
2013-05-03 05:19:00,48.7,40.1,29.96,SW,223,0.0,0.0,72,0.00,,,0.00,meteohub,2013-05-03 12:19:00,
2013-05-03 05:24:00,48.7,40.5,29.96,SW,223,0.0,0.0,73,0.00,,,0.00,meteohub,2013-05-03 12:24:00,
2013-05-03 05:29:00,48.7,40.5,29.96,SW,223,0.0,0.0,73,0.00,,,0.00,meteohub,2013-05-03 12:29:00,
2013-05-03 05:34:00,48.7,40.8,29.96,SW,223,0.0,0.0,74,0.00,,,0.00,meteohub,2013-05-03 12:34:00,
2013-05-03 05:39:00,48.4,40.5,29.96,SW,223,0.0,0.0,74,0.00,,,0.00,meteohub,2013-05-03 12:39:00,
2013-05-03 05:44:00,48.2,40.6,29.96,SW,223,0.0,0.0,75,0.00,,,0.00,meteohub,2013-05-03 12:44:00,
2013-05-03 05:49:00,47.8,40.3,29.96,SW,223,0.0,0.0,75,0.00,,,0.00,meteohub,2013-05-03 12:49:00,
2013-05-03 05:56:00,47.5,40.6,29.96,SW,223,0.0,0.0,77,0.00,,,0.00,meteohub,2013-05-03 12:56:00,
2013-05-03 06:02:00,47.5,40.3,29.96,SW,223,0.0,0.0,76,0.00,,,0.00,meteohub,2013-05-03 13:02:00,
2013-05-03 06:07:00,47.5,39.9,29.95,SW,223,0.0,0.0,75,0.00,,,0.00,meteohub,2013-05-03 13:07:00,
2013-05-03 06:12:00,47.7,40.5,29.95,SW,223,0.0,0.0,76,0.00,,,0.00,meteohub,2013-05-03 13:12:00,
2013-05-03 06:17:00,47.7,40.1,29.95,SW,223,0.0,0.0,75,0.00,,,0.00,meteohub,2013-05-03 13:17:00,
2013-05-03 06:22:00,47.5,39.9,29.96,SW,223,0.0,0.0,75,0.00,,,0.00,meteohub,2013-05-03 13:22:00,
2013-05-03 06:27:00,47.8,39.9,29.96,SW,223,0.0,0.0,74,0.00,,,0.00,meteohub,2013-05-03 13:27:00,
2013-05-03 06:32:00,47.8,40.3,29.96,SW,223,0.0,0.0,75,0.00,,,0.00,meteohub,2013-05-03 13:32:00,
2013-05-03 06:37:00,47.5,40.3,29.96,SW,223,0.0,0.0,76,0.00,,,0.00,meteohub,2013-05-03 13:37:00,
2013-05-03 06:42:00,47.5,40.6,29.96,SW,223,0.0,0.0,77,0.00,,,0.00,meteohub,2013-05-03 13:42:00,
2013-05-03 06:47:00,47.5,40.6,29.96,SW,223,0.0,0.0,77,0.00,,,0.00,meteohub,2013-05-03 13:47:00,
2013-05-03 06:52:00,47.7,40.5,29.96,SW,223,0.0,0.0,76,0.00,,,0.00,meteohub,2013-05-03 13:52:00,
2013-05-03 06:57:00,47.7,40.5,29.96,SW,223,0.0,0.0,76,0.00,,,0.00,meteohub,2013-05-03 13:57:00,
2013-05-03 07:02:00,48.4,41.2,29.96,SW,223,0.0,0.0,76,0.00,,,0.00,meteohub,2013-05-03 14:02:00,
2013-05-03 07:07:00,49.1,41.2,29.96,SW,223,0.0,0.0,74,0.00,,,0.00,meteohub,2013-05-03 14:07:00,
2013-05-03 07:12:00,50.2,41.5,29.96,SW,223,0.0,0.0,72,0.00,,,0.00,meteohub,2013-05-03 14:12:00,
2013-05-03 07:17:00,52.0,42.1,29.96,SW,223,0.0,0.0,69,0.00,,,0.00,meteohub,2013-05-03 14:17:00,
2013-05-03 07:23:00,52.9,41.4,29.96,SW,223,0.0,0.0,65,0.00,,,0.00,meteohub,2013-05-03 14:23:00,
2013-05-03 07:28:00,53.2,41.7,29.96,SW,223,0.0,0.0,65,0.00,,,0.00,meteohub,2013-05-03 14:28:00,
2013-05-03 07:33:00,54.9,41.2,29.96,SW,223,0.0,0.0,60,0.00,,,0.00,meteohub,2013-05-03 14:33:00,
2013-05-03 07:38:00,56.5,41.0,29.96,SW,223,0.0,0.0,56,0.00,,,0.00,meteohub,2013-05-03 14:38:00,
2013-05-03 07:43:00,57.4,41.9,29.96,SW,223,0.0,0.0,56,0.00,,,0.00,meteohub,2013-05-03 14:43:00,
2013-05-03 07:48:00,57.6,40.6,29.96,SE,128,0.0,0.0,53,0.00,,,0.00,meteohub,2013-05-03 14:48:00,
2013-05-03 07:53:00,57.9,40.8,29.96,ESE,113,1.0,2.0,53,0.00,,,0.00,meteohub,2013-05-03 14:53:00,
2013-05-03 07:58:00,58.5,39.9,29.96,East,98,1.0,2.0,50,0.00,,,0.00,meteohub,2013-05-03 14:58:00,
2013-05-03 08:03:00,59.4,40.6,29.96,East,98,0.0,2.0,50,0.00,,,0.00,meteohub,2013-05-03 15:03:00,
2013-05-03 08:08:00,59.7,39.4,29.96,East,98,1.0,2.0,47,0.00,,,0.00,meteohub,2013-05-03 15:08:00,
2013-05-03 08:13:00,59.7,39.4,29.96,NNW,334,1.0,1.0,47,0.00,,,0.00,meteohub,2013-05-03 15:13:00,
2013-05-03 08:18:00,60.4,39.0,29.96,NNW,334,0.0,1.0,45,0.00,,,0.00,meteohub,2013-05-03 15:18:00,
2013-05-03 08:23:00,62.2,39.4,29.96,NW,316,0.0,1.0,43,0.00,,,0.00,meteohub,2013-05-03 15:23:00,
2013-05-03 08:28:00,62.4,39.0,29.96,NW,317,0.0,1.0,42,0.00,,,0.00,meteohub,2013-05-03 15:28:00,
2013-05-03 08:33:00,62.8,39.9,29.96,NW,317,0.0,1.0,43,0.00,,,0.00,meteohub,2013-05-03 15:33:00,
2013-05-03 08:38:00,63.3,38.7,29.95,WNW,288,1.0,1.0,40,0.00,,,0.00,meteohub,2013-05-03 15:38:00,
2013-05-03 08:43:00,64.2,38.7,29.95,SSW,199,2.0,2.0,39,0.00,,,0.00,meteohub,2013-05-03 15:43:00,
2013-05-03 08:48:00,65.3,39.0,29.95,SSW,198,0.0,2.0,38,0.00,,,0.00,meteohub,2013-05-03 15:48:00,
2013-05-03 08:53:00,66.6,38.8,29.95,SSW,198,0.0,2.0,36,0.00,,,0.00,meteohub,2013-05-03 15:53:00,
2013-05-03 08:58:00,68.2,40.3,29.95,SSW,199,0.0,2.0,36,0.00,,,0.00,meteohub,2013-05-03 15:58:00,
2013-05-03 09:03:00,69.1,41.0,29.95,SSW,202,1.0,1.0,36,0.00,,,0.00,meteohub,2013-05-03 16:03:00,
2013-05-03 09:08:00,68.9,40.1,29.94,SSE,167,2.0,2.0,35,0.00,,,0.00,meteohub,2013-05-03 16:08:00,
2013-05-03 09:13:00,69.4,39.9,29.94,South,169,1.0,2.0,34,0.00,,,0.00,meteohub,2013-05-03 16:13:00,
2013-05-03 09:18:00,69.6,40.8,29.94,SSE,166,0.0,2.0,35,0.00,,,0.00,meteohub,2013-05-03 16:18:00,
2013-05-03 09:23:00,70.0,41.0,29.94,South,172,0.0,2.0,35,0.00,,,0.00,meteohub,2013-05-03 16:23:00,
2013-05-03 09:29:00,70.3,40.6,29.94,SW,225,0.0,2.0,34,0.00,,,0.00,meteohub,2013-05-03 16:29:00,
2013-05-03 09:34:00,71.4,41.5,29.94,SW,230,0.0,2.0,34,0.00,,,0.00,meteohub,2013-05-03 16:34:00,
2013-05-03 09:39:00,72.3,42.4,29.93,South,171,2.0,2.0,34,0.00,,,0.00,meteohub,2013-05-03 16:39:00,
2013-05-03 09:44:00,72.3,42.4,29.93,South,190,1.0,2.0,34,0.00,,,0.00,meteohub,2013-05-03 16:44:00,
2013-05-03 09:49:00,72.7,42.6,29.93,SSE,148,1.0,2.0,34,0.00,,,0.00,meteohub,2013-05-03 16:49:00,
2013-05-03 09:54:00,72.7,43.5,29.92,ESE,110,1.0,3.0,35,0.00,,,0.00,meteohub,2013-05-03 16:54:00,
2013-05-03 09:59:00,73.4,45.5,29.92,SW,236,1.0,3.0,37,0.00,,,0.00,meteohub,2013-05-03 16:59:00,
2013-05-03 10:04:00,74.1,44.8,29.92,South,177,3.0,3.0,35,0.00,,,0.00,meteohub,2013-05-03 17:04:00,
2013-05-03 10:09:00,74.5,44.2,29.92,ESE,116,2.0,3.0,34,0.00,,,0.00,meteohub,2013-05-03 17:09:00,
2013-05-03 10:14:00,74.5,45.0,29.92,SSE,165,1.0,3.0,35,0.00,,,0.00,meteohub,2013-05-03 17:14:00,
2013-05-03 10:19:00,74.8,46.0,29.92,SE,125,3.0,3.0,36,0.00,,,0.00,meteohub,2013-05-03 17:19:00,
2013-05-03 10:24:00,75.4,46.6,29.91,SW,222,3.0,3.0,36,0.00,,,0.00,meteohub,2013-05-03 17:24:00,
2013-05-03 10:29:00,75.9,46.2,29.91,SW,221,0.0,3.0,35,0.00,,,0.00,meteohub,2013-05-03 17:29:00,
2013-05-03 10:34:00,76.5,46.0,29.91,SSW,206,2.0,3.0,34,0.00,,,0.00,meteohub,2013-05-03 17:34:00,
2013-05-03 10:39:00,76.8,46.4,29.91,ESE,114,1.0,4.0,34,0.00,,,0.00,meteohub,2013-05-03 17:39:00,
2013-05-03 10:44:00,77.5,46.2,29.91,South,169,3.0,4.0,33,0.00,,,0.00,meteohub,2013-05-03 17:44:00,
2013-05-03 10:49:00,77.7,45.5,29.91,SE,136,1.0,4.0,32,0.00,,,0.00,meteohub,2013-05-03 17:49:00,
2013-05-03 10:54:00,78.4,46.2,29.91,SSW,192,1.0,4.0,32,0.00,,,0.00,meteohub,2013-05-03 17:54:00,
2013-05-03 10:59:00,79.0,45.7,29.91,South,180,1.0,4.0,31,0.00,,,0.00,meteohub,2013-05-03 17:59:00,
2013-05-03 11:04:00,79.3,45.1,29.91,SSW,194,3.0,5.0,30,0.00,,,0.00,meteohub,2013-05-03 18:04:00,
2013-05-03 11:09:00,79.5,46.2,29.90,ESE,122,2.0,5.0,31,0.00,,,0.00,meteohub,2013-05-03 18:09:00,
2013-05-03 11:14:00,79.7,46.4,29.90,SW,236,2.0,5.0,31,0.00,,,0.00,meteohub,2013-05-03 18:14:00,
2013-05-03 11:19:00,80.4,46.2,29.90,ESE,122,1.0,5.0,30,0.00,,,0.00,meteohub,2013-05-03 18:19:00,
2013-05-03 11:24:00,81.0,46.6,29.90,ESE,114,2.0,5.0,30,0.00,,,0.00,meteohub,2013-05-03 18:24:00,
2013-05-03 11:29:00,81.9,46.4,29.90,SW,220,1.0,4.0,29,0.00,,,0.00,meteohub,2013-05-03 18:29:00,
2013-05-03 11:34:00,82.0,45.7,29.90,NE,40,3.0,4.0,28,0.00,,,0.00,meteohub,2013-05-03 18:34:00,
2013-05-03 11:39:00,83.1,45.7,29.89,SSE,161,1.0,4.0,27,0.00,,,0.00,meteohub,2013-05-03 18:39:00,
2013-05-03 11:44:00,83.7,44.1,29.89,NW,305,1.0,4.0,25,0.00,,,0.00,meteohub,2013-05-03 18:44:00,
2013-05-03 11:49:00,84.2,44.6,29.89,ESE,119,2.0,5.0,25,0.00,,,0.00,meteohub,2013-05-03 18:49:00,
2013-05-03 11:54:00,84.6,43.9,29.88,SSE,148,2.0,4.0,24,0.00,,,0.00,meteohub,2013-05-03 18:54:00,
2013-05-03 12:00:00,84.9,45.1,29.88,SW,223,3.0,5.0,25,0.00,,,0.00,meteohub,2013-05-03 19:00:00,
2013-05-03 12:05:00,85.3,43.3,29.88,South,178,4.0,5.0,23,0.00,,,0.00,meteohub,2013-05-03 19:05:00,
2013-05-03 12:10:00,85.6,43.5,29.88,SSE,161,2.0,5.0,23,0.00,,,0.00,meteohub,2013-05-03 19:10:00,
2013-05-03 12:15:00,85.8,42.6,29.88,SW,219,3.0,6.0,22,0.00,,,0.00,meteohub,2013-05-03 19:15:00,
2013-05-03 12:20:00,86.0,42.8,29.88,SW,227,3.0,8.0,22,0.00,,,0.00,meteohub,2013-05-03 19:20:00,
2013-05-03 12:25:00,85.6,43.5,29.87,SSW,194,2.0,8.0,23,0.00,,,0.00,meteohub,2013-05-03 19:25:00,
2013-05-03 12:30:00,86.0,42.8,29.87,WNW,289,3.0,8.0,22,0.00,,,0.00,meteohub,2013-05-03 19:30:00,
2013-05-03 12:35:00,86.4,44.2,29.87,SW,214,1.0,7.0,23,0.00,,,0.00,meteohub,2013-05-03 19:35:00,
2013-05-03 12:40:00,87.1,42.4,29.86,SSW,210,4.0,5.0,21,0.00,,,0.00,meteohub,2013-05-03 19:40:00,
2013-05-03 12:45:00,87.4,43.9,29.86,West,277,3.0,6.0,22,0.00,,,0.00,meteohub,2013-05-03 19:45:00,
2013-05-03 12:50:00,86.5,41.9,29.86,WNW,292,4.0,6.0,21,0.00,,,0.00,meteohub,2013-05-03 19:50:00,
2013-05-03 12:55:00,87.1,43.7,29.86,East,93,1.0,6.0,22,0.00,,,0.00,meteohub,2013-05-03 19:55:00,
2013-05-03 13:00:00,87.1,42.4,29.86,WNW,302,0.0,6.0,21,0.00,,,0.00,meteohub,2013-05-03 20:00:00,
2013-05-03 13:05:00,88.2,43.3,29.86,SW,224,2.0,5.0,21,0.00,,,0.00,meteohub,2013-05-03 20:05:00,
2013-05-03 13:10:00,88.5,42.3,29.85,SSE,148,1.0,5.0,20,0.00,,,0.00,meteohub,2013-05-03 20:10:00,
2013-05-03 13:15:00,88.5,42.3,29.85,SSW,211,2.0,6.0,20,0.00,,,0.00,meteohub,2013-05-03 20:15:00,
2013-05-03 13:20:00,88.5,42.3,29.85,SSW,211,1.0,6.0,20,0.00,,,0.00,meteohub,2013-05-03 20:20:00,
2013-05-03 13:25:00,89.1,42.8,29.84,SSW,205,1.0,6.0,20,0.00,,,0.00,meteohub,2013-05-03 20:25:00,
2013-05-03 13:30:00,88.7,45.0,29.84,SW,217,7.0,7.0,22,0.00,,,0.00,meteohub,2013-05-03 20:30:00,
2013-05-03 13:35:00,88.7,42.4,29.84,WSW,240,3.0,7.0,20,0.00,,,0.00,meteohub,2013-05-03 20:35:00,
2013-05-03 13:40:00,88.9,43.9,29.84,SE,136,4.0,9.0,21,0.00,,,0.00,meteohub,2013-05-03 20:40:00,
2013-05-03 13:45:00,89.2,45.5,29.84,SSE,165,4.0,10.0,22,0.00,,,0.00,meteohub,2013-05-03 20:45:00,
2013-05-03 13:50:00,90.0,44.8,29.83,SW,219,5.0,10.0,21,0.00,,,0.00,meteohub,2013-05-03 20:50:00,
2013-05-03 13:55:00,89.6,43.2,29.83,West,272,3.0,6.0,20,0.00,,,0.00,meteohub,2013-05-03 20:55:00,
2013-05-03 14:00:00,89.2,44.2,29.83,WNW,300,4.0,7.0,21,0.00,,,0.00,meteohub,2013-05-03 21:00:00,
2013-05-03 14:05:00,89.1,44.1,29.82,SE,140,1.0,7.0,21,0.00,,,0.00,meteohub,2013-05-03 21:05:00,
2013-05-03 14:10:00,89.4,43.0,29.82,SSW,201,3.0,7.0,20,0.00,,,0.00,meteohub,2013-05-03 21:10:00,
2013-05-03 14:15:00,90.0,44.8,29.82,North,350,2.0,7.0,21,0.00,,,0.00,meteohub,2013-05-03 21:15:00,
2013-05-03 14:20:00,89.6,46.9,29.82,WSW,248,2.0,8.0,23,0.00,,,0.00,meteohub,2013-05-03 21:20:00,
2013-05-03 14:25:00,90.5,47.7,29.82,SE,146,3.0,8.0,23,0.00,,,0.00,meteohub,2013-05-03 21:25:00,
2013-05-03 14:30:00,90.1,48.6,29.82,WSW,247,4.0,8.0,24,0.00,,,0.00,meteohub,2013-05-03 21:30:00,
2013-05-03 14:36:00,89.8,52.3,29.81,South,190,10.0,10.0,28,0.00,,,0.00,meteohub,2013-05-03 21:36:00,
2013-05-03 14:41:00,89.1,50.7,29.81,SW,226,9.0,11.0,27,0.00,,,0.00,meteohub,2013-05-03 21:41:00,
2013-05-03 14:46:00,89.4,53.1,29.81,SSW,210,3.0,11.0,29,0.00,,,0.00,meteohub,2013-05-03 21:46:00,
2013-05-03 14:51:00,89.4,52.0,29.81,SW,219,2.0,11.0,28,0.00,,,0.00,meteohub,2013-05-03 21:51:00,
2013-05-03 14:56:00,88.9,50.5,29.81,SSW,202,4.0,9.0,27,0.00,,,0.00,meteohub,2013-05-03 21:56:00,
2013-05-03 15:01:00,88.9,48.6,29.81,SSW,203,5.0,12.0,25,0.00,,,0.00,meteohub,2013-05-03 22:01:00,
2013-05-03 15:06:00,88.9,47.5,29.80,South,184,6.0,12.0,24,0.00,,,0.00,meteohub,2013-05-03 22:06:00,
2013-05-03 15:11:00,89.1,46.4,29.80,WSW,237,4.0,12.0,23,0.00,,,0.00,meteohub,2013-05-03 22:11:00,
2013-05-03 15:16:00,88.5,46.0,29.80,SSW,203,4.0,11.0,23,0.00,,,0.00,meteohub,2013-05-03 22:16:00,
2013-05-03 15:21:00,88.2,46.8,29.80,West,268,1.0,11.0,24,0.00,,,0.00,meteohub,2013-05-03 22:21:00,
2013-05-03 15:26:00,88.5,47.1,29.80,SSW,206,1.0,11.0,24,0.00,,,0.00,meteohub,2013-05-03 22:26:00,
2013-05-03 15:31:00,88.3,46.9,29.80,SW,233,1.0,9.0,24,0.00,,,0.00,meteohub,2013-05-03 22:31:00,
2013-05-03 15:36:00,88.2,46.8,29.79,SW,223,5.0,10.0,24,0.00,,,0.00,meteohub,2013-05-03 22:36:00,
2013-05-03 15:41:00,87.8,46.6,29.79,WSW,241,4.0,10.0,24,0.00,,,0.00,meteohub,2013-05-03 22:41:00,
2013-05-03 15:46:00,87.6,45.3,29.79,SSW,209,4.0,11.0,23,0.00,,,0.00,meteohub,2013-05-03 22:46:00,
2013-05-03 15:51:00,87.6,45.3,29.79,WSW,245,5.0,11.0,23,0.00,,,0.00,meteohub,2013-05-03 22:51:00,
2013-05-03 15:56:00,86.7,46.8,29.79,SW,222,4.0,12.0,25,0.00,,,0.00,meteohub,2013-05-03 22:56:00,
2013-05-03 16:01:00,86.5,45.5,29.79,SSW,202,5.0,12.0,24,0.00,,,0.00,meteohub,2013-05-03 23:01:00,
2013-05-03 16:06:00,87.1,49.1,29.79,SW,232,2.0,12.0,27,0.00,,,0.00,meteohub,2013-05-03 23:06:00,
2013-05-03 16:11:00,87.4,48.4,29.79,SSW,192,5.0,9.0,26,0.00,,,0.00,meteohub,2013-05-03 23:11:00,
2013-05-03 16:16:00,86.7,48.7,29.79,SE,138,4.0,7.0,27,0.00,,,0.00,meteohub,2013-05-03 23:16:00,
2013-05-03 16:21:00,86.5,47.7,29.79,SW,215,3.0,7.0,26,0.00,,,0.00,meteohub,2013-05-03 23:21:00,
2013-05-03 16:26:00,85.8,46.9,29.79,South,187,3.0,7.0,26,0.00,,,0.00,meteohub,2013-05-03 23:26:00,
2013-05-03 16:31:00,85.1,46.4,29.79,South,187,6.0,7.0,26,0.00,,,0.00,meteohub,2013-05-03 23:31:00,
2013-05-03 16:36:00,84.7,47.1,29.79,SSE,165,6.0,7.0,27,0.00,,,0.00,meteohub,2013-05-03 23:36:00,
2013-05-03 16:41:00,84.4,45.7,29.79,SW,223,3.0,7.0,26,0.00,,,0.00,meteohub,2013-05-03 23:41:00,
2013-05-03 16:46:00,83.8,45.3,29.79,SSE,165,3.0,7.0,26,0.00,,,0.00,meteohub,2013-05-03 23:46:00,
2013-05-03 16:52:00,83.5,45.0,29.79,WSW,248,3.0,9.0,26,0.00,,,0.00,meteohub,2013-05-03 23:52:00,
2013-05-03 16:57:00,83.7,44.1,29.79,SSE,157,0.0,9.0,25,0.00,,,0.00,meteohub,2013-05-03 23:57:00,
2013-05-03 17:02:00,83.7,41.9,29.79,SSW,203,4.0,9.0,23,0.00,,,0.00,meteohub,2013-05-04 00:02:00,
2013-05-03 17:07:00,83.1,42.6,29.78,WSW,240,2.0,6.0,24,0.00,,,0.00,meteohub,2013-05-04 00:07:00,
2013-05-03 17:12:00,83.1,42.6,29.78,WSW,238,5.0,6.0,24,0.00,,,0.00,meteohub,2013-05-04 00:12:00,
2013-05-03 17:17:00,83.5,41.7,29.78,WSW,240,3.0,6.0,23,0.00,,,0.00,meteohub,2013-05-04 00:17:00,
2013-05-03 17:22:00,83.8,42.1,29.78,South,187,3.0,5.0,23,0.00,,,0.00,meteohub,2013-05-04 00:22:00,
2013-05-03 17:27:00,84.4,41.4,29.78,South,171,4.0,5.0,22,0.00,,,0.00,meteohub,2013-05-04 00:27:00,
2013-05-03 17:32:00,83.8,41.0,29.78,SE,139,1.0,6.0,22,0.00,,,0.00,meteohub,2013-05-04 00:32:00,
2013-05-03 17:37:00,83.5,40.6,29.78,ESE,113,3.0,6.0,22,0.00,,,0.00,meteohub,2013-05-04 00:37:00,
2013-05-03 17:42:00,83.7,40.8,29.78,SSW,211,2.0,6.0,22,0.00,,,0.00,meteohub,2013-05-04 00:42:00,
2013-05-03 17:47:00,84.0,41.0,29.78,SSW,192,2.0,3.0,22,0.00,,,0.00,meteohub,2013-05-04 00:47:00,
2013-05-03 17:52:00,83.8,41.0,29.78,SW,219,3.0,6.0,22,0.00,,,0.00,meteohub,2013-05-04 00:52:00,
2013-05-03 17:57:00,83.5,41.7,29.78,SW,221,1.0,6.0,23,0.00,,,0.00,meteohub,2013-05-04 00:57:00,
2013-05-03 18:02:00,83.3,41.7,29.78,WSW,244,1.0,5.0,23,0.00,,,0.00,meteohub,2013-05-04 01:02:00,
2013-05-03 18:07:00,83.7,41.9,29.77,SSW,196,3.0,5.0,23,0.00,,,0.00,meteohub,2013-05-04 01:07:00,
2013-05-03 18:12:00,83.3,41.7,29.77,SW,236,1.0,5.0,23,0.00,,,0.00,meteohub,2013-05-04 01:12:00,
2013-05-03 18:17:00,83.1,42.6,29.77,WSW,253,1.0,5.0,24,0.00,,,0.00,meteohub,2013-05-04 01:17:00,
2013-05-03 18:22:00,82.8,41.2,29.77,SSW,209,3.0,5.0,23,0.00,,,0.00,meteohub,2013-05-04 01:22:00,
2013-05-03 18:27:00,82.6,42.1,29.77,SSW,198,1.0,5.0,24,0.00,,,0.00,meteohub,2013-05-04 01:27:00,
2013-05-03 18:32:00,82.0,41.7,29.77,SW,221,3.0,5.0,24,0.00,,,0.00,meteohub,2013-05-04 01:32:00,
2013-05-03 18:37:00,81.9,42.6,29.77,SW,233,1.0,5.0,25,0.00,,,0.00,meteohub,2013-05-04 01:37:00,
2013-05-03 18:42:00,81.3,42.1,29.77,SSW,199,1.0,5.0,25,0.00,,,0.00,meteohub,2013-05-04 01:42:00,
2013-05-03 18:47:00,81.1,41.9,29.77,SW,218,1.0,5.0,25,0.00,,,0.00,meteohub,2013-05-04 01:47:00,
2013-05-03 18:52:00,81.0,42.8,29.76,SW,222,1.0,5.0,26,0.00,,,0.00,meteohub,2013-05-04 01:52:00,
2013-05-03 18:57:00,81.1,43.0,29.76,South,178,3.0,4.0,26,0.00,,,0.00,meteohub,2013-05-04 01:57:00,
2013-05-03 19:02:00,81.0,42.8,29.76,SW,218,1.0,4.0,26,0.00,,,0.00,meteohub,2013-05-04 02:02:00,
2013-05-03 19:07:00,80.4,43.3,29.76,SW,223,0.0,3.0,27,0.00,,,0.00,meteohub,2013-05-04 02:07:00,
2013-05-03 19:12:00,79.9,43.0,29.76,SW,223,1.0,4.0,27,0.00,,,0.00,meteohub,2013-05-04 02:12:00,
2013-05-03 19:17:00,79.7,44.6,29.76,SW,232,0.0,4.0,29,0.00,,,0.00,meteohub,2013-05-04 02:17:00,
2013-05-03 19:22:00,79.0,45.0,29.75,West,272,0.0,2.0,30,0.00,,,0.00,meteohub,2013-05-04 02:22:00,
2013-05-03 19:27:00,77.5,44.6,29.75,SSW,205,1.0,2.0,31,0.00,,,0.00,meteohub,2013-05-04 02:27:00,
2013-05-03 19:33:00,76.8,44.8,29.75,SW,223,0.0,2.0,32,0.00,,,0.00,meteohub,2013-05-04 02:33:00,
2013-05-03 19:38:00,76.5,44.4,29.75,SSW,212,0.0,2.0,32,0.00,,,0.00,meteohub,2013-05-04 02:38:00,
2013-05-03 19:43:00,76.1,45.0,29.75,SSW,211,0.0,2.0,33,0.00,,,0.00,meteohub,2013-05-04 02:43:00,
2013-05-03 19:48:00,75.6,45.1,29.75,SSW,211,0.0,1.0,34,0.00,,,0.00,meteohub,2013-05-04 02:48:00,
2013-05-03 19:53:00,74.8,45.3,29.75,SSW,211,0.0,1.0,35,0.00,,,0.00,meteohub,2013-05-04 02:53:00,
2013-05-03 19:58:00,74.1,45.5,29.75,SW,214,1.0,1.0,36,0.00,,,0.00,meteohub,2013-05-04 02:58:00,
2013-05-03 20:03:00,73.2,46.8,29.75,SW,222,0.0,2.0,39,0.00,,,0.00,meteohub,2013-05-04 03:03:00,
2013-05-03 20:08:00,72.7,46.9,29.75,SW,222,0.0,2.0,40,0.00,,,0.00,meteohub,2013-05-04 03:08:00,
2013-05-03 20:13:00,72.0,46.9,29.75,SW,222,0.0,2.0,41,0.00,,,0.00,meteohub,2013-05-04 03:13:00,
2013-05-03 20:18:00,71.4,47.1,29.75,SW,222,0.0,2.0,42,0.00,,,0.00,meteohub,2013-05-04 03:18:00,
2013-05-03 20:23:00,70.9,47.3,29.74,SW,222,0.0,0.0,43,0.00,,,0.00,meteohub,2013-05-04 03:23:00,
2013-05-03 20:28:00,70.5,46.9,29.74,SW,222,0.0,0.0,43,0.00,,,0.00,meteohub,2013-05-04 03:28:00,
2013-05-03 20:33:00,70.3,47.5,29.74,SW,222,0.0,0.0,44,0.00,,,0.00,meteohub,2013-05-04 03:33:00,
2013-05-03 20:38:00,69.8,48.0,29.75,SW,222,0.0,0.0,46,0.00,,,0.00,meteohub,2013-05-04 03:38:00,
2013-05-03 20:43:00,69.4,48.4,29.75,SW,221,0.0,0.0,47,0.00,,,0.00,meteohub,2013-05-04 03:43:00,
2013-05-03 20:48:00,68.7,48.2,29.75,SW,222,0.0,0.0,48,0.00,,,0.00,meteohub,2013-05-04 03:48:00,
2013-05-03 20:53:00,68.4,47.8,29.75,SW,222,0.0,0.0,48,0.00,,,0.00,meteohub,2013-05-04 03:53:00,
2013-05-03 20:58:00,68.0,48.2,29.75,SW,222,0.0,0.0,49,0.00,,,0.00,meteohub,2013-05-04 03:58:00,
2013-05-03 21:01:00,67.8,48.0,29.75,SW,222,0.0,0.0,49,0.00,,,0.00,meteohub,2013-05-04 04:01:00,
2013-05-03 21:02:00,67.6,48.4,29.75,SW,222,0.0,0.0,50,0.00,,,0.00,meteohub,2013-05-04 04:02:00,
2013-05-03 21:03:00,67.6,48.4,29.75,SW,222,0.0,0.0,50,0.00,,,0.00,meteohub,2013-05-04 04:03:00,
2013-05-03 21:08:00,67.3,48.0,29.75,SW,222,0.0,0.0,50,0.00,,,0.00,meteohub,2013-05-04 04:08:00,
2013-05-03 21:13:00,66.9,48.2,29.75,SW,222,0.0,0.0,51,0.00,,,0.00,meteohub,2013-05-04 04:13:00,
2013-05-03 21:18:00,66.6,47.8,29.75,SW,221,1.0,0.0,51,0.00,,,0.00,meteohub,2013-05-04 04:18:00,
2013-05-03 21:23:00,66.4,48.2,29.75,SW,221,0.0,0.0,52,0.00,,,0.00,meteohub,2013-05-04 04:23:00,
2013-05-03 21:28:00,66.0,48.4,29.75,SW,221,0.0,2.0,53,0.00,,,0.00,meteohub,2013-05-04 04:28:00,
2013-05-03 21:33:00,65.5,47.8,29.75,SW,221,0.0,1.0,53,0.00,,,0.00,meteohub,2013-05-04 04:33:00,
2013-05-03 21:38:00,64.9,47.8,29.75,SW,221,0.0,0.0,54,0.00,,,0.00,meteohub,2013-05-04 04:38:00,
2013-05-03 21:43:00,64.6,48.6,29.75,SW,221,0.0,0.0,56,0.00,,,0.00,meteohub,2013-05-04 04:43:00,
2013-05-03 21:48:00,64.2,48.2,29.75,SW,221,0.0,0.0,56,0.00,,,0.00,meteohub,2013-05-04 04:48:00,
2013-05-03 21:53:00,63.9,48.4,29.75,SW,221,0.0,0.0,57,0.00,,,0.00,meteohub,2013-05-04 04:53:00,
2013-05-03 21:58:00,63.5,48.0,29.75,SW,221,0.0,0.0,57,0.00,,,0.00,meteohub,2013-05-04 04:58:00,
2013-05-03 22:03:00,63.1,47.7,29.75,SW,221,0.0,0.0,57,0.00,,,0.00,meteohub,2013-05-04 05:03:00,
2013-05-03 22:08:00,62.6,47.7,29.75,SW,221,0.0,0.0,58,0.00,,,0.00,meteohub,2013-05-04 05:08:00,
2013-05-03 22:14:00,62.2,47.3,29.75,SW,221,0.0,0.0,58,0.00,,,0.00,meteohub,2013-05-04 05:14:00,
2013-05-03 22:19:00,61.7,47.3,29.75,SW,221,0.0,0.0,59,0.00,,,0.00,meteohub,2013-05-04 05:19:00,
2013-05-03 22:24:00,61.9,47.5,29.75,SW,221,0.0,0.0,59,0.00,,,0.00,meteohub,2013-05-04 05:24:00,
2013-05-03 22:29:00,61.9,46.9,29.75,SW,221,0.0,0.0,58,0.00,,,0.00,meteohub,2013-05-04 05:29:00,
2013-05-03 22:34:00,61.9,47.5,29.75,SW,223,0.0,0.0,59,0.00,,,0.00,meteohub,2013-05-04 05:34:00,
2013-05-03 22:39:00,61.7,45.0,29.75,SW,229,0.0,0.0,54,0.00,,,0.00,meteohub,2013-05-04 05:39:00,
2013-05-03 22:44:00,61.3,44.1,29.75,SW,229,0.0,0.0,53,0.00,,,0.00,meteohub,2013-05-04 05:44:00,
2013-05-03 22:49:00,61.2,44.4,29.75,SW,229,0.0,0.0,54,0.00,,,0.00,meteohub,2013-05-04 05:49:00,
2013-05-03 22:54:00,60.8,44.1,29.75,SW,229,0.0,0.0,54,0.00,,,0.00,meteohub,2013-05-04 05:54:00,
2013-05-03 22:59:00,60.4,44.2,29.75,SW,229,0.0,0.0,55,0.00,,,0.00,meteohub,2013-05-04 05:59:00,
2013-05-03 23:04:00,60.3,44.1,29.75,SW,229,0.0,0.0,55,0.00,,,0.00,meteohub,2013-05-04 06:04:00,
2013-05-03 23:09:00,60.1,44.8,29.75,SW,226,0.0,0.0,57,0.00,,,0.00,meteohub,2013-05-04 06:09:00,
2013-05-03 23:14:00,59.9,44.6,29.75,SSE,160,0.0,0.0,57,0.00,,,0.00,meteohub,2013-05-04 06:14:00,
2013-05-03 23:19:00,59.5,44.8,29.75,SSE,160,0.0,0.0,58,0.00,,,0.00,meteohub,2013-05-04 06:19:00,
2013-05-03 23:24:00,59.5,44.8,29.74,SSE,160,0.0,0.0,58,0.00,,,0.00,meteohub,2013-05-04 06:24:00,
2013-05-03 23:29:00,59.2,44.8,29.74,SSE,160,0.0,0.0,59,0.00,,,0.00,meteohub,2013-05-04 06:29:00,
2013-05-03 23:34:00,58.8,45.0,29.74,SSE,160,0.0,0.0,60,0.00,,,0.00,meteohub,2013-05-04 06:34:00,
2013-05-03 23:39:00,58.8,45.3,29.74,SSE,161,0.0,0.0,61,0.00,,,0.00,meteohub,2013-05-04 06:39:00,
2013-05-03 23:44:00,58.6,45.3,29.74,SSE,161,0.0,0.0,61,0.00,,,0.00,meteohub,2013-05-04 06:44:00,
2013-05-03 23:49:00,58.5,45.9,29.74,SSE,161,0.0,0.0,63,0.00,,,0.00,meteohub,2013-05-04 06:49:00,
2013-05-03 23:54:00,57.9,45.3,29.73,SSE,161,0.0,0.0,63,0.00,,,0.00,meteohub,2013-05-04 06:54:00,
2013-05-03 23:59:00,57.7,45.7,29.73,SSE,161,0.0,0.0,64,0.00,,,0.00,meteohub,2013-05-04 06:59:00,